"Date","Downloads","Mod Version"
"2024-05-18 09:35:03.002301","18","0.2.18.4"
"2024-05-18 08:30:52.953684","14","0.2.18.4"
"2024-05-18 07:30:02.904751","9","0.2.18.4"
"2024-05-18 06:11:34.814898","8","0.2.18.4"
"2024-05-18 05:09:09.595100","8","0.2.18.4"
"2024-05-18 04:07:59.152044","10","0.2.18.4"
"2024-05-18 02:44:19.897827","14","0.2.18.4"
"2024-05-18 01:41:33.323187","21","0.2.18.4"
"2024-05-18 00:33:08.178026","13","0.2.18.4"
"2024-05-17 23:27:59.948260","12","0.2.18.4"
"2024-05-17 22:27:43.593089","19","0.2.18.4"
"2024-05-17 21:25:58.903494","14","0.2.18.4"
"2024-05-17 20:23:14.497734","12","0.2.18.4"
"2024-05-17 19:20:59.359644","18","0.2.18.4"
"2024-05-17 18:14:24.082324","15","0.2.18.4"
"2024-05-17 17:12:00.984021","18","0.2.18.4"
"2024-05-17 16:08:23.497492","15","0.2.18.4"
"2024-05-17 15:08:08.106890","14","0.2.18.4"
"2024-05-17 14:04:40.576048","25","0.2.18.4"
"2024-05-17 12:58:10.784568","12","0.2.18.4"
"2024-05-17 11:55:08.986309","12","0.2.18.4"
"2024-05-17 10:52:59.782690","3","0.2.18.4"
"2024-05-17 10:39:48.824372","1","0.2.3"
"2024-05-17 09:52:14.096288","7","0.2.18.4"
"2024-05-17 08:46:59.106127","14","0.2.18.4"
"2024-05-17 07:36:16.912799","8","0.2.18.4"
"2024-05-17 06:26:24.305340","12","0.2.18.4"
"2024-05-17 05:23:39.182290","13","0.2.18.4"
"2024-05-17 04:20:46.978669","6","0.2.18.4"
"2024-05-17 03:19:41.556784","5","0.2.18.4"
"2024-05-17 02:11:39.947750","9","0.2.18.4"
"2024-05-17 01:52:39.825253","1","0.2.15.2"
"2024-05-17 01:30:53.929161","1","0.2.0"
"2024-05-17 01:08:04.932736","10","0.2.18.4"
"2024-05-16 23:59:09.629307","14","0.2.18.4"
"2024-05-16 22:58:26.735174","14","0.2.18.4"
"2024-05-16 21:51:07.277942","15","0.2.18.4"
"2024-05-16 20:49:44.150444","14","0.2.18.4"
"2024-05-16 19:46:43.562685","19","0.2.18.4"
"2024-05-16 18:37:46.029729","25","0.2.18.4"
"2024-05-16 18:33:21.896055","2","0.2.18.3"
"2024-05-16 17:36:35.252021","13","0.2.18.4"
"2024-05-16 16:35:15.912720","13","0.2.18.4"
"2024-05-16 15:33:52.682620","14","0.2.18.4"
"2024-05-16 14:32:35.150205","12","0.2.18.4"
"2024-05-16 13:24:32.200082","12","0.2.18.4"
"2024-05-16 12:42:40.250884","1","0.2.4"
"2024-05-16 12:21:43.950927","11","0.2.18.4"
"2024-05-16 11:20:31.288363","11","0.2.18.4"
"2024-05-16 10:39:51.886056","1","0.2.18.3"
"2024-05-16 10:15:57.671129","9","0.2.18.4"
"2024-05-16 09:09:33.673290","9","0.2.18.4"
"2024-05-16 08:03:49.626804","7","0.2.18.4"
"2024-05-16 06:56:51.762537","5","0.2.18.4"
"2024-05-16 05:53:42.914376","9","0.2.18.4"
"2024-05-16 04:52:39.465865","9","0.2.18.4"
"2024-05-16 03:46:44.279184","9","0.2.18.4"
"2024-05-16 02:45:06.945587","3","0.2.18.4"
"2024-05-16 01:33:27.095066","6","0.2.18.4"
"2024-05-16 00:29:07.095294","17","0.2.18.4"
"2024-05-15 23:37:08.935430","1","0.2.18.3"
"2024-05-15 23:23:51.367123","17","0.2.18.4"
"2024-05-15 22:17:26.416821","9","0.2.18.4"
"2024-05-15 21:11:26.759785","19","0.2.18.4"
"2024-05-15 20:11:02.100950","15","0.2.18.4"
"2024-05-15 19:03:10.992890","15","0.2.18.4"
"2024-05-15 18:02:42.727980","9","0.2.18.4"
"2024-05-15 17:02:09.153653","17","0.2.18.4"
"2024-05-15 16:01:34.423159","15","0.2.18.4"
"2024-05-15 14:55:44.933603","12","0.2.18.4"
"2024-05-15 13:54:31.542553","11","0.2.18.4"
"2024-05-15 13:51:46.630934","1","0.2.18.3"
"2024-05-15 12:46:13.980470","13","0.2.18.4"
"2024-05-15 11:44:51.857977","9","0.2.18.4"
"2024-05-15 10:42:07.596809","9","0.2.18.4"
"2024-05-15 09:33:01.366875","8","0.2.18.4"
"2024-05-15 08:13:49.770452","8","0.2.18.4"
"2024-05-15 07:09:26.511349","5","0.2.18.4"
"2024-05-15 06:08:19.329059","10","0.2.18.4"
"2024-05-15 05:07:06.482630","7","0.2.18.4"
"2024-05-15 04:04:07.236248","9","0.2.18.4"
"2024-05-15 02:57:08.920788","12","0.2.18.4"
"2024-05-15 01:49:56.934244","11","0.2.18.4"
"2024-05-15 00:38:13.149441","12","0.2.18.4"
"2024-05-15 00:21:32.213002","1","0.2.18.3"
"2024-05-14 23:35:46.215328","9","0.2.18.4"
"2024-05-14 22:35:24.054917","15","0.2.18.4"
"2024-05-14 21:33:02.306903","8","0.2.18.4"
"2024-05-14 20:28:21.199687","17","0.2.18.4"
"2024-05-14 19:27:29.254493","1","0.2.18.3"
"2024-05-14 19:15:58.938397","21","0.2.18.4"
"2024-05-14 18:11:38.556598","23","0.2.18.4"
"2024-05-14 18:10:03.922862","1","0.2.17.1"
"2024-05-14 17:29:56.796757","1","0.2.18.3"
"2024-05-14 16:57:26.619141","12","0.2.18.4"
"2024-05-14 15:56:09.164382","13","0.2.18.4"
"2024-05-14 14:56:02.694799","17","0.2.18.4"
"2024-05-14 13:54:26.173031","17","0.2.18.4"
"2024-05-14 12:53:16.454667","8","0.2.18.4"
"2024-05-14 11:52:48.898992","15","0.2.18.4"
"2024-05-14 10:47:13.650189","2","0.2.18.4"
"2024-05-14 09:43:37.691744","12","0.2.18.4"
"2024-05-14 08:55:33.586666","1","0.2.18.3"
"2024-05-14 08:08:54.809986","11","0.2.18.4"
"2024-05-14 07:03:57.143845","11","0.2.18.4"
"2024-05-14 05:46:49.395374","4","0.2.18.4"
"2024-05-14 04:44:39.889094","7","0.2.18.4"
"2024-05-14 03:35:33.537113","8","0.2.18.4"
"2024-05-14 02:31:37.928735","11","0.2.18.4"
"2024-05-14 01:31:36.329344","9","0.2.18.4"
"2024-05-14 00:25:07.805853","18","0.2.18.4"
"2024-05-14 00:17:34.431681","1","0.2.18.3"
"2024-05-13 23:24:21.784574","22","0.2.18.4"
"2024-05-13 22:15:30.189106","17","0.2.18.4"
"2024-05-13 21:13:22.205631","20","0.2.18.4"
"2024-05-13 21:03:14.103313","1","0.2.10.3"
"2024-05-13 20:11:04.335984","12","0.2.18.4"
"2024-05-13 19:07:53.527451","13","0.2.18.4"
"2024-05-13 18:35:44.765773","1","0.2.4"
"2024-05-13 17:54:33.405698","17","0.2.18.4"
"2024-05-13 16:53:15.879701","18","0.2.18.4"
"2024-05-13 15:49:21.907095","19","0.2.18.4"
"2024-05-13 14:45:01.103255","15","0.2.18.4"
"2024-05-13 13:42:29.625744","14","0.2.18.4"
"2024-05-13 12:40:48.971009","12","0.2.18.4"
"2024-05-13 11:33:03.777387","6","0.2.18.4"
"2024-05-13 10:29:49.278323","8","0.2.18.4"
"2024-05-13 09:12:53.913652","9","0.2.18.4"
"2024-05-13 08:05:32.618167","10","0.2.18.4"
"2024-05-13 06:52:46.779932","11","0.2.18.4"
"2024-05-13 05:45:04.514162","7","0.2.18.4"
"2024-05-13 04:39:03.463286","8","0.2.18.4"
"2024-05-13 03:31:57.894832","16","0.2.18.4"
"2024-05-13 02:20:31.397797","12","0.2.18.4"
"2024-05-13 01:19:32.952187","11","0.2.18.4"
"2024-05-13 00:13:16.139018","17","0.2.18.4"
"2024-05-12 23:11:34.481392","1","0.2.18.3"
"2024-05-12 23:04:33.353295","15","0.2.18.4"
"2024-05-12 22:02:34.851558","15","0.2.18.4"
"2024-05-12 21:01:58.308568","18","0.2.18.4"
"2024-05-12 20:00:57.051528","23","0.2.18.4"
"2024-05-12 18:56:38.177043","17","0.2.18.4"
"2024-05-12 17:52:56.472604","26","0.2.18.4"
"2024-05-12 16:51:23.305879","18","0.2.18.4"
"2024-05-12 16:09:16.928993","1","0.2.16.1"
"2024-05-12 15:43:07.498538","31","0.2.18.4"
"2024-05-12 14:39:25.054542","21","0.2.18.4"
"2024-05-12 13:23:09.458205","14","0.2.18.4"
"2024-05-12 12:22:15.422973","18","0.2.18.4"
"2024-05-12 11:10:42.924492","19","0.2.18.4"
"2024-05-12 10:10:09.168221","8","0.2.18.4"
"2024-05-12 09:00:49.155668","13","0.2.18.4"
"2024-05-12 07:54:02.523627","12","0.2.18.4"
"2024-05-12 06:53:22.086428","9","0.2.18.4"
"2024-05-12 05:37:07.165078","10","0.2.18.4"
"2024-05-12 04:32:08.878576","12","0.2.18.4"
"2024-05-12 03:28:48.816517","11","0.2.18.4"
"2024-05-12 02:27:21.430555","16","0.2.18.4"
"2024-05-12 01:25:42.109353","18","0.2.18.4"
"2024-05-12 00:25:08.226859","12","0.2.18.4"
"2024-05-11 23:19:55.041678","18","0.2.18.4"
"2024-05-11 22:15:48.740523","27","0.2.18.4"
"2024-05-11 21:04:32.900549","19","0.2.18.4"
"2024-05-11 19:54:28.271966","14","0.2.18.4"
"2024-05-11 18:54:26.817154","20","0.2.18.4"
"2024-05-11 17:52:55.224686","20","0.2.18.4"
"2024-05-11 16:47:56.808842","17","0.2.18.4"
"2024-05-11 16:19:44.495545","1","0.2.18.3"
"2024-05-11 15:47:21.516807","23","0.2.18.4"
"2024-05-11 14:45:20.232061","18","0.2.18.4"
"2024-05-11 13:42:59.077211","19","0.2.18.4"
"2024-05-11 12:41:42.294197","11","0.2.18.4"
"2024-05-11 11:38:42.739009","15","0.2.18.4"
"2024-05-11 10:34:53.593545","14","0.2.18.4"
"2024-05-11 09:27:44.309072","24","0.2.18.4"
"2024-05-11 08:04:49.177615","13","0.2.18.4"
"2024-05-11 06:59:42.685400","7","0.2.18.4"
"2024-05-11 05:54:35.704316","9","0.2.18.4"
"2024-05-11 04:53:48.394976","8","0.2.18.4"
"2024-05-11 04:46:34.189866","1","0.2.18.3"
"2024-05-11 03:43:10.557551","5","0.2.18.4"
"2024-05-11 03:13:02.523322","1","0.2.18.3"
"2024-05-11 02:34:15.939103","9","0.2.18.4"
"2024-05-11 01:29:28.312759","9","0.2.18.4"
"2024-05-11 00:20:12.306670","11","0.2.18.4"
"2024-05-10 23:19:55.028166","16","0.2.18.4"
"2024-05-10 22:19:29.039543","17","0.2.18.4"
"2024-05-10 21:13:46.060582","11","0.2.18.4"
"2024-05-10 20:38:02.507567","1","0.2.5.2"
"2024-05-10 20:11:57.400217","18","0.2.18.4"
"2024-05-10 19:07:50.033065","23","0.2.18.4"
"2024-05-10 18:29:09.620034","1","0.2.18.3"
"2024-05-10 18:05:11.919635","10","0.2.18.4"
"2024-05-10 17:04:16.684084","19","0.2.18.4"
"2024-05-10 16:02:08.406865","21","0.2.18.4"
"2024-05-10 15:00:49.453566","18","0.2.18.4"
"2024-05-10 14:41:47.692921","1","0.2.9.2"
"2024-05-10 13:59:29.326260","14","0.2.18.4"
"2024-05-10 12:53:48.422930","18","0.2.18.4"
"2024-05-10 06:54:21.124030","12","0.2.18.4"
"2024-05-10 05:40:43.281787","6","0.2.18.4"
"2024-05-10 04:13:43.427172","14","0.2.18.4"
"2024-05-10 03:10:55.582201","12","0.2.18.4"
"2024-05-10 02:08:47.019895","11","0.2.18.4"
"2024-05-10 01:27:37.334476","1","0.2.4"
"2024-05-10 01:23:16.807387","1","0.2.5.1"
"2024-05-10 01:18:54.738949","1","0.2.15.2"
"2024-05-10 01:07:50.842330","12","0.2.18.4"
"2024-05-09 23:57:21.198227","24","0.2.18.4"
"2024-05-09 22:47:36.450509","20","0.2.18.4"
"2024-05-09 21:36:19.019625","10","0.2.18.4"
"2024-05-09 20:33:36.630420","22","0.2.18.4"
"2024-05-09 19:25:59.071065","12","0.2.18.4"
"2024-05-09 18:25:44.400817","21","0.2.18.4"
"2024-05-09 17:25:17.764472","17","0.2.18.4"
"2024-05-09 16:21:01.383822","17","0.2.18.4"
"2024-05-09 15:11:55.620296","12","0.2.18.4"
"2024-05-09 15:09:22.427799","1","0.2.18.3"
"2024-05-09 14:11:17.081820","27","0.2.18.4"
"2024-05-09 13:10:05.502032","15","0.2.18.4"
"2024-05-09 12:06:20.403959","18","0.2.18.4"
"2024-05-09 11:04:16.958835","14","0.2.18.4"
"2024-05-09 09:59:49.301142","11","0.2.18.4"
"2024-05-09 08:54:28.302616","17","0.2.18.4"
"2024-05-09 07:53:51.934236","14","0.2.18.4"
"2024-05-09 06:53:04.166666","10","0.2.18.4"
"2024-05-09 05:40:15.136597","11","0.2.18.4"
"2024-05-09 04:28:22.378170","12","0.2.18.4"
"2024-05-09 03:47:35.782041","1","0.2.18.3"
"2024-05-09 03:23:45.320585","14","0.2.18.4"
"2024-05-09 02:19:01.373052","14","0.2.18.4"
"2024-05-09 02:17:34.893932","1","0.2.18.3"
"2024-05-09 01:11:52.433783","17","0.2.18.4"
"2024-05-09 00:07:51.084520","23","0.2.18.4"
"2024-05-08 23:07:19.860526","13","0.2.18.4"
"2024-05-08 22:01:27.123083","23","0.2.18.4"
"2024-05-08 20:55:26.778607","18","0.2.18.4"
"2024-05-08 19:53:59.193453","23","0.2.18.4"
"2024-05-08 18:49:32.153555","16","0.2.18.4"
"2024-05-08 18:18:36.201613","1","0.2.3"
"2024-05-08 17:48:21.468273","23","0.2.18.4"
"2024-05-08 16:39:47.814278","20","0.2.18.4"
"2024-05-08 15:33:26.011255","19","0.2.18.4"
"2024-05-08 14:31:07.732901","17","0.2.18.4"
"2024-05-08 13:26:14.153138","21","0.2.18.4"
"2024-05-08 12:21:04.994525","15","0.2.18.4"
"2024-05-08 11:20:03.011214","8","0.2.18.4"
"2024-05-08 10:15:57.186732","10","0.2.18.4"
"2024-05-08 09:14:28.947517","10","0.2.18.4"
"2024-05-08 08:08:38.118956","11","0.2.18.4"
"2024-05-08 07:07:35.677636","4","0.2.18.4"
"2024-05-08 05:57:04.986500","6","0.2.18.4"
"2024-05-08 04:49:34.010773","6","0.2.18.4"
"2024-05-08 03:24:04.514222","16","0.2.18.4"
"2024-05-08 02:09:17.493207","17","0.2.18.4"
"2024-05-08 01:01:08.892948","20","0.2.18.4"
"2024-05-07 23:59:30.290158","22","0.2.18.4"
"2024-05-07 22:54:48.900931","15","0.2.18.4"
"2024-05-07 22:02:34.816708","1","0.2.16.1"
"2024-05-07 21:51:12.618639","1","0.2.18.3"
"2024-05-07 21:50:48.257150","21","0.2.18.4"
"2024-05-07 20:43:59.516836","21","0.2.18.4"
"2024-05-07 19:39:44.632187","17","0.2.18.4"
"2024-05-07 18:38:53.549817","18","0.2.18.4"
"2024-05-07 17:44:13.657423","1","0.2.13.0"
"2024-05-07 17:38:29.266345","20","0.2.18.4"
"2024-05-07 16:36:38.797402","33","0.2.18.4"
"2024-05-07 16:30:06.273188","1","0.2.17.1"
"2024-05-07 15:36:28.062979","21","0.2.18.4"
"2024-05-07 14:35:31.326520","12","0.2.18.4"
"2024-05-07 13:34:00.553585","10","0.2.18.4"
"2024-05-07 12:33:38.559183","15","0.2.18.4"
"2024-05-07 11:29:30.501177","8","0.2.18.4"
"2024-05-07 10:21:24.442503","6","0.2.18.4"
"2024-05-07 09:20:03.923394","7","0.2.18.4"
"2024-05-07 08:14:48.271580","5","0.2.18.4"
"2024-05-07 06:19:36.948315","2","0.2.18.4"
"2024-05-07 00:21:52.709254","2","0.2.18.4"
"2024-05-06 19:23:34.041376","2","0.2.18.4"
"2024-05-06 16:34:08.263902","3","0.2.18.4"
"2024-05-06 15:04:52.355464","3","0.2.18.4"
"2024-05-06 13:34:00.385605","3","0.2.18.4"
"2024-05-06 12:26:34.235096","13","0.2.18.4"
"2024-05-06 11:17:15.560712","5","0.2.18.4"
"2024-05-06 10:55:35.097061","1","0.2.18.3"
"2024-05-06 10:15:54.414866","10","0.2.18.4"
"2024-05-06 10:01:17.933287","1","0.2.17.1"
"2024-05-06 09:48:47.946363","1","0.2.18.3"
"2024-05-06 09:00:30.583793","7","0.2.18.4"
"2024-05-06 07:59:38.334530","9","0.2.18.4"
"2024-05-06 06:52:37.081809","6","0.2.18.4"
"2024-05-06 05:46:25.212932","7","0.2.18.4"
"2024-05-06 04:35:48.919431","9","0.2.18.4"
"2024-05-06 03:29:47.851135","10","0.2.18.4"
"2024-05-06 02:23:58.971150","12","0.2.18.4"
"2024-05-06 01:15:10.868078","10","0.2.18.4"
"2024-05-06 00:03:07.689568","15","0.2.18.4"
"2024-05-05 23:00:42.271626","11","0.2.18.4"
"2024-05-05 21:55:37.837409","17","0.2.18.4"
"2024-05-05 20:52:13.846922","19","0.2.18.4"
"2024-05-05 19:20:25.522018","15","0.2.18.4"
"2024-05-05 18:19:33.375645","19","0.2.18.4"
"2024-05-05 17:52:36.722127","1","0.2.17.1"
"2024-05-05 17:19:29.065855","26","0.2.18.4"
"2024-05-05 16:19:10.152486","33","0.2.18.4"
"2024-05-05 16:04:46.757709","1","0.2.18.3"
"2024-05-05 15:19:09.033509","21","0.2.18.4"
"2024-05-05 14:18:40.649445","17","0.2.18.4"
"2024-05-05 13:46:29.977683","1","0.2.18.3"
"2024-05-05 13:17:46.452967","29","0.2.18.4"
"2024-05-05 12:26:58.489503","1","0.2.18.3"
"2024-05-05 12:15:16.306307","13","0.2.18.4"
"2024-05-05 11:11:11.283907","19","0.2.18.4"
"2024-05-05 10:08:25.991729","12","0.2.18.4"
"2024-05-05 09:52:30.650882","1","0.2.14.0"
"2024-05-05 09:08:09.371396","7","0.2.18.4"
"2024-05-05 07:54:01.084773","7","0.2.18.4"
"2024-05-05 06:52:22.054455","12","0.2.18.4"
"2024-05-05 05:52:07.726709","10","0.2.18.4"
"2024-05-05 04:36:23.665436","12","0.2.18.4"
"2024-05-05 03:27:20.862097","8","0.2.18.4"
"2024-05-05 02:22:38.446123","13","0.2.18.4"
"2024-05-05 01:17:00.879180","15","0.2.18.4"
"2024-05-05 00:14:44.617219","18","0.2.18.4"
"2024-05-04 23:02:01.270106","10","0.2.18.4"
"2024-05-04 21:58:00.071633","19","0.2.18.4"
"2024-05-04 20:56:56.806052","15","0.2.18.4"
"2024-05-04 19:49:41.474531","19","0.2.18.4"
"2024-05-04 18:48:50.756713","19","0.2.18.4"
"2024-05-04 17:46:51.108491","24","0.2.18.4"
"2024-05-04 16:40:34.759817","12","0.2.18.4"
"2024-05-04 15:36:50.881414","16","0.2.18.4"
"2024-05-04 14:34:15.407153","19","0.2.18.4"
"2024-05-04 13:32:08.161459","19","0.2.18.4"
"2024-05-04 12:16:34.749810","1","0.2.18.3"
"2024-05-04 12:13:42.441603","22","0.2.18.4"
"2024-05-04 11:11:59.859329","14","0.2.18.4"
"2024-05-04 10:10:44.177615","9","0.2.18.4"
"2024-05-04 10:00:46.724719","1","0.2.16.1"
"2024-05-04 09:08:49.557909","18","0.2.18.4"
"2024-05-04 08:14:47.137987","1","0.2.18.3"
"2024-05-04 08:08:48.864971","13","0.2.18.4"
"2024-05-04 07:06:56.085236","5","0.2.18.4"
"2024-05-04 06:01:01.505908","13","0.2.18.4"
"2024-05-04 04:57:07.283421","7","0.2.18.4"
"2024-05-04 03:52:30.277101","11","0.2.18.4"
"2024-05-04 02:35:36.927262","13","0.2.18.4"
"2024-05-04 01:30:58.336382","9","0.2.18.4"
"2024-05-04 00:24:56.156641","15","0.2.18.4"
"2024-05-03 23:23:56.752869","12","0.2.18.4"
"2024-05-03 22:17:05.525368","11","0.2.18.4"
"2024-05-03 21:15:08.979231","9","0.2.18.4"
"2024-05-03 20:27:40.301571","1","0.2.18.3"
"2024-05-03 20:08:25.426752","14","0.2.18.4"
"2024-05-03 19:01:37.021134","11","0.2.18.4"
"2024-05-03 17:59:33.697854","9","0.2.18.4"
"2024-05-03 16:56:56.392113","16","0.2.18.4"
"2024-05-03 15:48:20.167994","12","0.2.18.4"
"2024-05-03 14:47:01.089977","10","0.2.18.4"
"2024-05-03 13:46:12.009142","18","0.2.18.4"
"2024-05-03 12:38:23.777968","7","0.2.18.4"
"2024-05-03 11:37:52.535723","13","0.2.18.4"
"2024-05-03 10:36:16.706206","6","0.2.18.4"
"2024-05-03 09:28:13.625634","7","0.2.18.4"
"2024-05-03 08:27:39.333631","9","0.2.18.4"
"2024-05-03 07:17:24.079715","6","0.2.18.4"
"2024-05-03 06:15:59.226715","4","0.2.18.4"
"2024-05-03 05:14:30.358605","7","0.2.18.4"
"2024-05-03 04:14:18.495673","6","0.2.18.4"
"2024-05-03 03:11:58.353561","9","0.2.18.4"
"2024-05-03 02:25:28.246027","1","0.2.18.3"
"2024-05-03 02:08:51.875412","10","0.2.18.4"
"2024-05-03 01:08:39.315684","17","0.2.18.4"
"2024-05-03 00:02:33.625542","7","0.2.18.4"
"2024-05-02 23:01:15.952567","8","0.2.18.4"
"2024-05-02 22:00:27.297101","8","0.2.18.4"
"2024-05-02 20:58:21.239303","6","0.2.18.4"
"2024-05-02 19:51:07.521152","11","0.2.18.4"
"2024-05-02 18:46:15.386611","15","0.2.18.4"
"2024-05-02 17:37:32.904848","11","0.2.18.4"
"2024-05-02 17:14:48.817316","1","0.2.10.3"
"2024-05-02 17:10:44.351845","1","0.2.16.1"
"2024-05-02 16:27:15.209592","6","0.2.18.4"
"2024-05-02 15:16:46.210242","12","0.2.18.4"
"2024-05-02 14:10:22.122451","11","0.2.18.4"
"2024-05-02 13:03:58.244057","9","0.2.18.4"
"2024-05-02 12:48:11.965958","1","0.2.18.3"
"2024-05-02 11:59:09.369288","8","0.2.18.4"
"2024-05-02 10:59:00.436403","7","0.2.18.4"
"2024-05-02 09:56:12.381800","10","0.2.18.4"
"2024-05-02 08:43:57.796330","5","0.2.18.4"
"2024-05-02 07:36:29.027676","14","0.2.18.4"
"2024-05-02 06:33:02.617507","7","0.2.18.4"
"2024-05-02 05:32:42.447825","12","0.2.18.4"
"2024-05-02 04:25:16.142781","7","0.2.18.4"
"2024-05-02 03:07:00.630339","7","0.2.18.4"
"2024-05-02 02:03:27.143409","8","0.2.18.4"
"2024-05-02 00:49:23.283708","10","0.2.18.4"
"2024-05-01 23:27:59.393941","5","0.2.18.4"
"2024-05-01 22:20:50.379425","5","0.2.18.4"
"2024-05-01 22:17:26.451500","1","0.2.1"
"2024-05-01 22:17:17.659406","1","0.2.5.2"
"2024-05-01 22:17:08.766303","1","0.2.6.1"
"2024-05-01 21:09:27.663083","10","0.2.18.4"
"2024-05-01 20:07:43.272859","12","0.2.18.4"
"2024-05-01 19:00:38.310553","10","0.2.18.4"
"2024-05-01 17:45:38.227940","11","0.2.18.4"
"2024-05-01 16:39:38.239266","1","0.2.4"
"2024-05-01 16:38:06.076881","10","0.2.18.4"
"2024-05-01 15:25:06.447099","15","0.2.18.4"
"2024-05-01 14:16:19.617831","7","0.2.18.4"
"2024-05-01 13:30:33.617888","1","0.2.0"
"2024-05-01 13:30:00.034095","1","0.2.2"
"2024-05-01 13:29:58.096528","1","0.2.3"
"2024-05-01 13:29:56.180316","1","0.2.4"
"2024-05-01 13:29:54.194984","1","0.2.5.1"
"2024-05-01 13:28:47.952755","1","0.2.7.0"
"2024-05-01 13:28:45.922574","1","0.2.8.0"
"2024-05-01 13:28:43.875165","1","0.2.9.0"
"2024-05-01 13:28:41.934541","1","0.2.9.1"
"2024-05-01 13:28:39.885194","1","0.2.9.2"
"2024-05-01 13:28:37.847073","1","0.2.10.1"
"2024-05-01 13:28:35.866835","1","0.2.10.2"
"2024-05-01 13:28:33.899765","1","0.2.10.3"
"2024-05-01 13:28:31.549106","1","0.2.11.1"
"2024-05-01 13:28:29.625263","1","0.2.12.0"
"2024-05-01 13:28:27.695363","1","0.2.13.0"
"2024-05-01 13:28:25.723583","1","0.2.14.0"
"2024-05-01 13:28:23.703866","1","0.2.15.1"
"2024-05-01 13:28:21.714237","1","0.2.15.2"
"2024-05-01 13:28:19.679875","1","0.2.16.1"
"2024-05-01 13:28:17.637067","1","0.2.17.0"
"2024-05-01 13:28:15.674468","1","0.2.17.1"
"2024-05-01 13:28:13.753603","1","0.2.18.1"
"2024-05-01 13:28:11.694245","1","0.2.18.2"
"2024-05-01 13:28:09.729007","1","0.2.18.3"
"2024-05-01 13:13:34.395072","11","0.2.18.4"
"2024-05-01 12:11:48.604544","10","0.2.18.4"
"2024-05-01 11:10:07.505703","11","0.2.18.4"
"2024-05-01 10:09:50.902790","10","0.2.18.4"
"2024-05-01 08:55:02.427545","11","0.2.18.4"
"2024-05-01 07:26:09.874201","70","0.2.18.4"
"2024-05-01 05:50:59.287510","5","0.2.18.4"
"2024-05-01 03:33:19.520582","5","0.2.18.4"
"2024-05-01 02:21:21.552403","2","0.2.18.4"
"2024-05-01 01:07:47.528735","8","0.2.18.4"
"2024-05-01 00:03:41.671269","5","0.2.18.4"
"2024-04-30 23:00:05.235129","13","0.2.18.4"
"2024-04-30 22:00:02.443892","9","0.2.18.4"
"2024-04-30 20:55:28.247395","12","0.2.18.4"
"2024-04-30 20:15:17.182796","1","0.2.4"
"2024-04-30 19:50:31.030741","13","0.2.18.4"
"2024-04-30 18:49:16.102903","7","0.2.18.4"
"2024-04-30 17:48:22.084860","14","0.2.18.4"
"2024-04-30 17:20:40.112892","1","0.2.18.3"
"2024-04-30 16:37:14.516236","6","0.2.18.4"
"2024-04-30 15:18:02.982086","12","0.2.18.4"
"2024-04-30 14:17:10.550280","10","0.2.18.4"
"2024-04-30 13:08:39.441007","14","0.2.18.4"
"2024-04-30 12:03:31.368328","8","0.2.18.4"
"2024-04-30 10:51:09.584694","14","0.2.18.4"
"2024-04-30 09:38:25.692567","5","0.2.18.4"
"2024-04-30 08:32:13.316846","4","0.2.18.4"
"2024-04-30 07:26:45.944591","8","0.2.18.4"
"2024-04-30 06:23:12.208437","2","0.2.18.4"
"2024-04-30 04:19:48.185156","4","0.2.18.4"
"2024-04-30 03:08:22.467096","5","0.2.18.4"
"2024-04-30 01:53:55.173485","4","0.2.18.4"
"2024-04-30 00:39:31.349394","5","0.2.18.4"
"2024-04-29 23:24:31.373745","5","0.2.18.4"
"2024-04-29 23:15:54.601316","1","0.2.18.3"
"2024-04-29 22:07:32.720208","4","0.2.18.4"
"2024-04-29 21:00:40.766486","13","0.2.18.4"
"2024-04-29 19:46:17.639623","7","0.2.18.4"
"2024-04-29 18:35:13.829924","9","0.2.18.4"
"2024-04-29 17:18:30.161925","10","0.2.18.4"
"2024-04-29 16:16:40.075315","8","0.2.18.4"
"2024-04-29 15:03:07.092718","9","0.2.18.4"
"2024-04-29 13:48:00.606240","4","0.2.18.4"
"2024-04-29 12:46:12.186229","4","0.2.18.4"
"2024-04-29 11:33:06.237001","6","0.2.18.4"
"2024-04-29 10:32:46.465812","9","0.2.18.4"
"2024-04-29 09:17:54.449600","8","0.2.18.4"
"2024-04-29 07:51:16.547521","6","0.2.18.4"
"2024-04-29 06:38:23.950468","10","0.2.18.4"
"2024-04-29 05:54:00.473490","1","0.2.17.1"
"2024-04-29 05:08:18.204991","26","0.2.18.4"
"2024-04-29 03:44:08.286094","8","0.2.18.4"
"2024-04-29 02:38:10.227286","3","0.2.18.4"
"2024-04-29 01:37:44.333599","8","0.2.18.4"
"2024-04-29 00:11:51.989933","6","0.2.18.4"
"2024-04-28 23:04:35.095141","12","0.2.18.4"
"2024-04-28 21:50:39.660942","11","0.2.18.4"
"2024-04-28 20:44:21.475410","10","0.2.18.4"
"2024-04-28 19:44:11.753486","7","0.2.18.4"
"2024-04-28 18:41:43.818418","6","0.2.18.4"
"2024-04-28 17:36:28.618085","12","0.2.18.4"
"2024-04-28 16:18:11.274108","15","0.2.18.4"
"2024-04-28 15:09:52.452937","20","0.2.18.4"
"2024-04-28 14:07:04.884828","14","0.2.18.4"
"2024-04-28 13:00:48.858834","10","0.2.18.4"
"2024-04-28 11:58:48.528569","11","0.2.18.4"
"2024-04-28 11:28:15.679703","1","0.2.18.3"
"2024-04-28 10:54:59.720652","8","0.2.18.4"
"2024-04-28 09:54:09.715522","14","0.2.18.4"
"2024-04-28 08:49:53.265022","8","0.2.18.4"
"2024-04-28 08:45:42.824842","1","0.2.16.1"
"2024-04-28 07:44:04.375337","8","0.2.18.4"
"2024-04-28 06:33:53.097196","11","0.2.18.4"
"2024-04-28 05:11:10.532861","7","0.2.18.4"
"2024-04-28 04:08:16.201227","8","0.2.18.4"
"2024-04-28 03:57:01.087866","1","0.2.0"
"2024-04-28 03:27:00.105624","1","0.2.18.3"
"2024-04-28 02:44:36.349410","8","0.2.18.4"
"2024-04-28 01:43:29.853327","7","0.2.18.4"
"2024-04-28 00:42:21.103896","6","0.2.18.4"
"2024-04-27 23:41:29.486527","6","0.2.18.4"
"2024-04-27 22:35:05.227978","15","0.2.18.4"
"2024-04-27 21:29:33.503061","8","0.2.18.4"
"2024-04-27 20:28:28.001206","14","0.2.18.4"
"2024-04-27 19:26:40.167787","14","0.2.18.4"
"2024-04-27 18:23:50.564049","10","0.2.18.4"
"2024-04-27 16:58:06.240974","9","0.2.18.4"
"2024-04-27 15:54:42.435982","1","0.2.18.3"
"2024-04-27 15:50:54.315996","10","0.2.18.4"
"2024-04-27 14:47:55.419939","10","0.2.18.4"
"2024-04-27 13:46:27.890324","11","0.2.18.4"
"2024-04-27 12:42:21.918166","10","0.2.18.4"
"2024-04-27 11:40:41.706496","9","0.2.18.4"
"2024-04-27 10:33:14.659004","1","0.2.15.2"
"2024-04-27 10:16:23.419826","12","0.2.18.4"
"2024-04-27 09:16:00.436883","6","0.2.18.4"
"2024-04-27 07:43:47.552361","11","0.2.18.4"
"2024-04-27 06:42:16.491583","13","0.2.18.4"
"2024-04-27 05:32:47.151411","5","0.2.18.4"
"2024-04-27 04:23:00.824993","8","0.2.18.4"
"2024-04-27 03:18:37.274565","7","0.2.18.4"
"2024-04-27 02:14:36.731341","4","0.2.18.4"
"2024-04-27 01:10:21.034631","11","0.2.18.4"